loading
DOY 175 | 2024-06-23T11:07:18Z

STARLINK-31948, 59941

Orbit data source: Space-Track

STARLINK-31948, 59941 is a payload satellite owned by SpaceX/Seattle (US) in LEO that was launched on Sat, 01 Jun 2024 UTC via a Falcon 9 launch vehicle from the Air Force Eastern Test Range (AFETR). Payloads include a variety of satellites, spacecraft, and rockets equipped with specific instruments for various scientific and technological missions. These include communications satellites like Starlink; space stations such as the ISS; scientific satellites like the Hubble; Earth observation satellites from companies like Planet Labs, Umbra, and HawkEye 360; GPS; miniature CubeSats for education and research; and military/defense satellites.

Loading next visibility...
Loading greatness...
STARLINK-31948 details
NORAD ID59941
COSPAR ID
2024-106V
Orbit
LEO
Last TLE update5 hours ago
Origin
Flag of USSpaceX/Seattle (US)
ManufacturerSpaceX/Seattle
BusStarlink V2M
MotorUnknown
Mass750 kg wet, ~700 kg dry
Launch date (UTC)
2024-06-01 (3 weeks ago)
Launch vehicle
Falcon 9
Launch site
Air Force Eastern Test Range (AFETR)
Object type
Payload
Rocket body
Debris
Radar Cross SectionLarge (>1 m²)
Predictive object data (real-time)
Latitude42.2084°
Longitude29.8947°
Altitude345.976 km
Speed7.707 km/s
Apparent Right ascension06h 07m 31s
Apparent Declination5° 03' 38"
Sunlit
Object is in daylight
Predictive observer data (real-time)
Local Sidereal Time22:15:17
Azimuth67.267° ENE
Elevation-17.623°
Doppler factor1
Orbital elements
Apogee343.537 km
Perigee341.715 km
Semi-major axis6,720.763 km
Eccentricity0.0001356
Inclination42.9986°
RAAN288.3888°
Arg. of periapsis264.9024°
True anomaly63.65412°
Mean anomaly63.6402°
Mean motion3.93927 °/min
BSTAR-0.0077753
Period91.39 mins
Definitive object data (Epoch: 2024-06-23T06:00:00.999Z)
Latitude-21.00131°
Longitude-97.68275°
Altitude344.983 km
Speed7.703 km/s
True Right ascension17h 36m 53s
True Declination-20° 52' 46"
Sunlit
Object was in full shadow at TLE epoch
TLE from 5 hours ago
0 STARLINK-31948
1 59941U 24106V   24175.25001157 -.01132862  00000-0 -77753-2 0  9997
2 59941  42.9986 288.3888 0001356 264.9024  63.6402 15.76403744  4674
Epoch: 2024-06-23T06:00Z
No data available

STARLINK-31948 Visibility forecast

Observer location: 39.9160978°, -105.1181434, 0m alt.

STARLINK-31948 is not visible in the next 10 days
Span
Click to sort rows by Start time (UTC) header in descending order
Start Az.
Max El. time (UTC)
Max El. Az.
Max El.
End time (UTC)
End Az.